Content
SEND FEEDBACK

Daily
Averages
Monthly
Summary
Canada

MONTREAL, QUEBEC


Home > North America > Canada > Quebec
Elevation: 35 meters     Latitude: 45 28N     Longitude: 073 45W

WEATHER
 
SELECT A DAY
Number of Records: 200,695;   Date Range: 1/1/95 - 9/29/14
 
SHARE

PRINT THIS DATA

[ ← Previous Day ]
WEATHER ALMANAC - 1 AUGUST, 2013
[ Next Day → ]
[ °F ]   °C
Weather ElementAverageHighLow
Temperature21.3 °C26 °C (12:00 pm)19 °C (2:11 pm)
Dewpoint17.7 °C20 °C (4:00 pm)16 °C (2:00 am)
Humidity79.6 %94 % (3:25 pm)61 % (12:00 pm)
Barometer1009.8 hPa1014.9 hPa (1:00 am)1007.1 hPa (1:26 pm)
Wind Speed18.7 km/h44.4 km/h (2:07 pm)
Wind Gust62.9 km/h (2:11 pm)
Weather ElementAverage
Visibility21.9 km
Wind DirectionSSE (161.1 °)

Weather ElementTotal
Precipitation---
Cooling Degree Days4.2 (Base 18.3)
Growing Degree Days12.5 (Base 10)
Averaged from 38 records on 1 August, 2013
WEATHER CONDITIONS BREAKOUT
WIND DIRECTION BREAKOUT
WEATHER BY HOUR - 1 AUGUST, 2013
[ °F ]   °C
Local TimeTemperatureDewpointHumidityBarometerVisibilityWind DirectionWind SpeedGust SpeedPrecipitationEventsConditions
1:00 AM22 °C17 °C73 %1014.9 hPa24.1 kmSE (130°)3.7 km/hMostly Cloudy
2:00 AM21.1 °C16.1 °C66 %1014.6 hPa24.1 kmSouth (170°)9.3 km/hScattered Clouds
2:00 AM21 °C16 °C73 %1014.6 hPa24.1 kmSSE (160°)9.3 km/hScattered Clouds
3:00 AM21 °C16 °C73 %1013.9 hPa24.1 kmSE (130°)7.4 km/hMostly Cloudy
4:00 AM20 °C16 °C78 %1013.2 hPa24.1 kmESE (110°)11.1 km/hMostly Cloudy
5:00 AM20 °C16 °C78 %1012.9 hPa24.1 kmESE (110°)11.1 km/hMostly Cloudy
6:00 AM20 °C16 °C78 %1012.9 hPa24.1 kmSE (130°)7.4 km/hMostly Cloudy
7:00 AM20 °C16 °C78 %1012.5 hPa24.1 kmSE (130°)9.3 km/hMostly Cloudy
8:00 AM20 °C16 °C78 %1012.2 hPa24.1 kmESE (110°)9.3 km/hOvercast
8:00 AM20 °C16.1 °C72 %1012.2 hPa24.1 kmESE (120°)9.3 km/hOvercast
9:00 AM21 °C16 °C73 %1011.5 hPa24.1 kmSE (140°)14.8 km/hOvercast
10:00 AM23 °C16 °C65 %1010.5 hPa22.5 kmSE (140°)22.2 km/h31.5 km/hMostly Cloudy
11:00 AM24 °C17 °C65 %1009.8 hPa24.1 kmSE (130°)25.9 km/hMostly Cloudy
12:00 PM26 °C18 °C61 %1008.8 hPa24.1 kmSE (130°)27.8 km/h40.7 km/hMostly Cloudy
1:00 PM26 °C18 °C61 %1007.5 hPa24.1 kmSE (140°)40.7 km/h51.8 km/hMostly Cloudy
1:26 PM25 °C17 °C61 %1007.1 hPa19.3 kmSE (140°)35.2 km/h51.8 km/hRainLight Rain Showers
2:00 PM23.3 °C17.2 °C61 %1007.1 hPa19.3 kmSSE (150°)33.3 km/hRainLight Rain Showers
2:00 PM24 °C17 °C65 %1007.1 hPa19.3 kmSSE (160°)29.6 km/h44.4 km/hRainLight Rain Showers
2:04 PM22 °C18 °C78 %1008.1 hPa9.7 kmSW (220°)42.6 km/h55.5 km/hRainRain Showers
2:07 PM20 °C18 °C88 %1008.8 hPa4 kmSW (230°)44.4 km/h57.5 km/hRainRain Showers
2:11 PM19 °C17 °C88 %1008.8 hPa6.4 kmSW (220°)40.7 km/h62.9 km/hRainLight Rain Showers
2:28 PM20 °C17 °C83 %1009.1 hPa19.3 kmSW (220°)31.5 km/h42.6 km/hRainLight Rain Showers
3:00 PM20 °C18 °C88 %1009.1 hPa24.1 kmSW (220°)27.8 km/h38.9 km/hRainLight Rain Showers
3:25 PM20 °C19 °C94 %1008.8 hPa24.1 kmSSW (200°)14.8 km/hOvercast
4:00 PM22 °C20 °C88 %1008.5 hPa24.1 kmSSE (160°)14.8 km/hMostly Cloudy
5:00 PM22 °C19 °C83 %1007.8 hPa24.1 kmSSE (150°)24.1 km/hOvercast
6:00 PM22 °C19 °C83 %1007.5 hPa24.1 kmSSE (150°)20.4 km/hMostly Cloudy
6:09 PM22 °C19 °C83 %1007.8 hPa19.3 kmSSE (150°)13 km/hRainLight Rain Showers
6:54 PM21 °C19 °C88 %1007.8 hPa24.1 kmSSE (150°)20.4 km/hOvercast
7:00 PM21 °C19 °C88 %1007.8 hPa24.1 kmSSE (160°)18.5 km/hOvercast
7:27 PM21 °C19 °C88 %1007.8 hPa24.1 kmSE (140°)11.1 km/hRainLight Rain Showers
7:43 PM21 °C19 °C88 %1007.8 hPa24.1 kmSouth (180°)5.6 km/hRainLight Rain Showers
8:00 PM20.6 °C18.9 °C89 %1008.1 hPa24.1 kmSSW (200°)7.4 km/hRainLight Rain Showers
8:00 PM20 °C19 °C94 %1008.1 hPa24.1 kmSouth (180°)13 km/hRainLight Rain Showers
8:27 PM20 °C19 °C94 %1007.8 hPa24.1 kmSSE (160°)14.8 km/hOvercast
9:00 PM20 °C19 °C94 %1008.1 hPa24.1 kmSouth (170°)11.1 km/hOvercast
10:00 PM20 °C19 °C94 %1008.1 hPa19.3 kmSSW (200°)5.6 km/hMostly Cloudy
11:00 PM20 °C19 °C94 %1008.5 hPa24.1 kmSW (230°)13 km/hMostly Cloudy
Hourly data recorded from CYUL, located 0 kilometers away from Montreal, Quebec







STORIES FROM OUR PARTNERS